Погода в Грэйте-Ярмуте

Великобритания     52°36′16″N   1°43′20″E
темп.,
°C
ветер,
м/с
пор.,
м/с
влажн.,
%
обл.,
%
осадки,
мм/ч
давл.,
гПа
погр.,
м
17 июня, чт
чт1701:00+16юз4796100 2.6 1009132
04:00+16всв359864 9.4 100782
07:00+16зюз1296100 9.6 100896
10:00+17сз229499 2.4 1008171
13:00+19юв229079 3.8 1010290
16:00+17св3397100 1.1 1011237
19:00+15с5795100 1.1 1012212
22:00+15с4697100 0.0 1014191
18 июня, пт
пт1801:00+15ссв4598100 0.4 1013187
04:00+15св4599100 1.9 1013182
07:00+14ссв4699100 2.8 1013212
10:00+14ссв81298100 1.3 1012443
13:00+14ссв81399100 10.2 1011464
16:00+14с81298100 2.9 1009407
19:00+13с121697100 6.8 1008551
22:00+12ссз111595100 0.7 1011705
19 июня, сб
сб1901:00+12сз8139390 1.9 1013648
04:00+12сз4892100 0.1 1015531
07:00+13сз238899 0.1 1017332
10:00+14св1182100 0.1 1017438
13:00+14в4479100 0.1 1017578
16:00+14в4578100 0.0 1016592
19:00+14всв688399 0.0 1014484
22:00+13всв71085100 0.0 1013458
20 июня, вс
вс2001:00+13всв101688100 0.0 1009462
04:00+13св131997100 8.1 1003519
07:00+13всв142097100 33.3 998833
10:00+17ю9139499 5.6 997525
13:00+15ююз12168992 5.6 999821
16:00+16юз12188040 0.1 10011068
19:00+12зюз8128551 0.1 1005780
22:00+11з7108229 0.0 1007598
21 июня, пн
пн2101:00+9зсз612931 0.0 1007388
04:00+9сз479598 0.0 1008262
07:00+11зсз5684100 0.0 1008563
10:00+13сз678269 0.0 1010714
13:00+14сз7880100 0.2 1010956
16:00+13сз71085100 0.3 1011822
19:00+12сз7108699 0.4 1012745
22:00+11сз6108596 0.1 1013665